H1 CPF 2 NER 2025 8 2 9 214 01 glonass141 H2 1908801 9141 44850 2025 8 2 0 0 0 2025 8 5 23 45 0 900 1 1 0 0 0 1 H9 10 0 60889 0.00000 0 -16847065.784 5496325.473 18379299.901 10 0 60889 900.00000 0 -15187839.663 3793791.069 20169327.476 10 0 60889 1800.00000 0 -13541252.043 1816736.981 21568718.663 10 0 60889 2700.00000 0 -11965931.015 -399484.049 22550398.687 10 0 60889 3600.00000 0 -10514047.759 -2808633.391 23095357.961 10 0 60889 4500.00000 0 -9229214.016 -5355263.020 23193015.723 10 0 60889 5400.00000 0 -8144754.191 -7976781.291 22841424.522 10 0 60889 6300.00000 0 -7282423.083 -10605824.109 22047311.758 10 0 60889 7200.00000 0 -6651621.960 -13172834.968 20825957.230 10 0 60889 8100.00000 0 -6249145.266 -15608748.679 19200908.374 10 0 60889 9000.00000 0 -6059468.449 -17847668.914 17203537.612 10 0 60889 9900.00000 0 -6055565.137 -19829429.536 14872449.090 10 0 60889 10800.00000 0 -6200219.843 -21501933.923 12252744.820 10 0 60889 11700.00000 0 -6447781.685 -22823175.107 9395163.004 10 0 60889 12600.00000 0 -6746285.855 -23762852.227 6355104.011 10 0 60889 13500.00000 0 -7039853.815 -24303515.150 3191561.945 10 0 60889 14400.00000 0 -7271270.947 -24441188.504 -34018.043 10 0 60889 15300.00000 0 -7384632.346 -24185447.965 -3258934.602 10 0 60889 16200.00000 0 -7327944.083 -23558944.687 -6420453.687 10 0 60889 17100.00000 0 -7055568.574 -22596397.081 -9457036.272 10 0 60889 18000.00000 0 -6530409.002 -21343091.904 -12309545.421 10 0 60889 18900.00000 0 -5725738.467 -19852957.560 -14922408.155 10 0 60889 19800.00000 0 -4626594.575 -18186290.895 -17244708.380 10 0 60889 20700.00000 0 -3230678.505 -16407233.591 -19231188.522 10 0 60889 21600.00000 0 -1548718.805 -14581105.004 -20843139.519 10 0 60889 22500.00000 0 395717.145 -12771704.247 -22049161.203 10 0 60889 23400.00000 0 2566957.398 -11038695.583 -22825777.861 10 0 60889 24300.00000 0 4918475.719 -9435187.401 -23157896.854 10 0 60889 25200.00000 0 7394606.217 -8005606.578 -23039101.423 10 0 60889 26100.00000 0 9932650.982 -6783957.291 -22471772.198 10 0 60889 27000.00000 0 12465292.819 -5792536.790 -21467035.391 10 0 60889 27900.00000 0 14923212.335 -5041161.097 -20044539.076 10 0 60889 28800.00000 0 17237800.009 -4526931.867 -18232062.367 10 0 60889 29700.00000 0 19343849.967 -4234552.674 -16064965.603 10 0 60889 30600.00000 0 21182123.047 -4137179.635 -13585492.740 10 0 60889 31500.00000 0 22701672.264 -4197768.762 -10841940.100 10 0 60889 32400.00000 0 23861833.958 -4370861.448 -7887708.244 10 0 60889 33300.00000 0 24633802.050 -4604731.065 -4780256.026 10 0 60889 34200.00000 0 25001720.525 -4843798.600 -1579977.806 10 0 60889 35100.00000 0 24963249.600 -5031214.082 1650973.767 10 0 60889 36000.00000 0 24529583.261 -5111493.879 4849896.072 10 0 60889 36900.00000 0 23724918.892 -5033101.870 7954752.100 10 0 60889 37800.00000 0 22585402.612 -4750865.280 10905369.638 10 0 60889 38700.00000 0 21157595.737 -4228123.200 13644600.977 10 0 60889 39600.00000 0 19496527.487 -3438517.389 16119421.118 10 0 60889 40500.00000 0 17663415.962 -2367350.147 18281943.968 10 0 60889 41400.00000 0 15723152.700 -1012452.256 20090337.883 10 0 60889 42300.00000 0 13741655.518 615475.574 21509623.983 10 0 60889 43200.00000 0 11783199.256 2493062.511 22512343.030 10 0 60889 44100.00000 0 9907834.571 4585001.198 23079079.138 10 0 60889 45000.00000 0 8169000.952 6845285.761 23198831.100 10 0 60889 45900.00000 0 6611431.948 9218904.247 22869224.807 10 0 60889 46800.00000 0 5269438.501 11643916.954 22096562.837 10 0 60889 47700.00000 0 4165640.755 14053836.149 20895710.052 10 0 60889 48600.00000 0 3310200.382 16380210.214 19289816.732 10 0 60889 49500.00000 0 2700584.977 18555306.514 17309883.556 10 0 60889 50400.00000 0 2321874.224 20514782.727 14994175.537 10 0 60889 51300.00000 0 2147595.181 22200236.367 12387494.807 10 0 60889 52200.00000 0 2141051.956 23561526.574 9540324.881 10 0 60889 53100.00000 0 2257094.289 24558771.137 6507861.744 10 0 60889 54000.00000 0 2444250.902 25163934.650 3348949.593 10 0 60889 54900.00000 0 2647137.672 25361940.351 124941.261 10 0 60889 55800.00000 0 2809038.703 25151257.858 -3101494.630 10 0 60889 56700.00000 0 2874550.517 24543940.921 -6267596.359 10 0 60889 57600.00000 0 2792176.425 23565112.479 -9311737.216 10 0 60889 58500.00000 0 2516759.867 22251917.793 -12174634.201 10 0 60889 59400.00000 0 2011652.033 20651989.117 -14800512.701 10 0 60889 60300.00000 0 1250520.192 18821486.232 -17138203.372 10 0 60889 61200.00000 0 218718.349 16822795.356 -19142148.770 10 0 60889 62100.00000 0 -1085839.512 14721983.482 -20773299.295 10 0 60889 63000.00000 0 -2652342.133 12586115.556 -21999880.311 10 0 60889 63900.00000 0 -4457295.305 10480547.660 -22798015.108 10 0 60889 64800.00000 0 -6465279.954 8466310.139 -23152191.418 10 0 60889 65700.00000 0 -8630223.050 6597690.583 -23055562.471 10 0 60889 66600.00000 0 -10897128.553 4920117.851 -22510076.925 10 0 60889 67500.00000 0 -13204196.219 3468435.297 -21526435.508 10 0 60889 68400.00000 0 -15485239.645 2265634.681 -20123875.615 10 0 60889 69300.00000 0 -17672302.330 1322102.580 -18329788.517 10 0 60889 70200.00000 0 -19698362.220 635409.314 -16179177.129 10 0 60889 71100.00000 0 -21500011.521 190647.396 -13713965.388 10 0 60889 72000.00000 0 -23019999.651 -38696.725 -10982173.250 10 0 60889 72900.00000 0 -24209533.065 -89376.386 -8036973.932 10 0 60889 73800.00000 0 -25030236.062 -6583.433 -4935652.345 10 0 60889 74700.00000 0 -25455691.005 158210.265 -1738485.601 10 0 60889 75600.00000 0 -25472494.307 349675.854 1492432.037 10 0 60889 76500.00000 0 -25080784.947 511211.551 4694396.505 10 0 60889 77400.00000 0 -24294224.515 587577.728 7805309.714 10 0 60889 78300.00000 0 -23139430.826 527471.237 10764880.103 10 0 60889 79200.00000 0 -21654889.889 285930.187 13515784.831 10 0 60889 80100.00000 0 -19889392.620 -173532.175 16004771.496 10 0 60889 81000.00000 0 -17900062.231 -877154.155 18183678.840 10 0 60889 81900.00000 0 -15750054.765 -1839587.235 20010357.647 10 0 60889 82800.00000 0 -13506028.446 -3063048.775 21449475.182 10 0 60889 83700.00000 0 -11235486.549 -4537001.514 22473188.847 10 0 60889 84600.00000 0 -9004103.299 -6238373.821 23061677.172 10 0 60889 85500.00000 0 -6873142.665 -8132312.451 23203518.841 10 0 60890 0.00000 0 -4897076.049 -10173437.536 22895913.095 10 0 60890 900.00000 0 -3121495.340 -12307550.301 22144737.258 10 0 60890 1800.00000 0 -1581409.385 -14473721.448 20964440.563 10 0 60890 2700.00000 0 -299990.120 -16606678.828 19377775.140 10 0 60890 3600.00000 0 712177.528 -18639394.084 17415368.629 10 0 60890 4500.00000 0 1457312.180 -20505763.055 15115145.334 10 0 60890 5400.00000 0 1950109.927 -22143269.133 12521605.656 10 0 60890 6300.00000 0 2216889.158 -23495518.983 9684976.317 10 0 60890 7200.00000 0 2294241.952 -24514544.658 6660246.603 10 0 60890 8100.00000 0 2227248.518 -25162775.284 3506108.295 10 0 60890 9000.00000 0 2067329.812 -25414594.725 283819.275 10 0 60890 9900.00000 0 1869829.088 -25257418.609 -2943987.300 10 0 60890 10800.00000 0 1691425.071 -24692244.029 -6114524.831 10 0 60890 11700.00000 0 1587487.009 -23733647.395 -9166081.777 10 0 60890 12600.00000 0 1609484.725 -22409229.239 -12039231.925 10 0 60890 13500.00000 0 1802564.826 -20758528.323 -14678001.840 10 0 60890 14400.00000 0 2203397.293 -18831450.043 -17030971.628 10 0 60890 15300.00000 0 2838385.355 -16686274.866 -19052286.489 10 0 60890 16200.00000 0 3722316.043 -14387330.471 -20702558.499 10 0 60890 17100.00000 0 4857510.036 -12002425.500 -21949640.391 10 0 60890 18000.00000 0 6233508.084 -9600152.904 -22769255.852 10 0 60890 18900.00000 0 7827308.365 -7247176.195 -23145473.899 10 0 60890 19800.00000 0 9604145.692 -5005612.419 -23071018.162 10 0 60890 20700.00000 0 11518780.413 -2930621.357 -22547405.256 10 0 60890 21600.00000 0 13517243.210 -1068301.408 -21584909.896 10 0 60890 22500.00000 0 15538962.736 546020.537 -20202357.840 10 0 60890 23400.00000 0 17519186.796 1889034.813 -18426751.138 10 0 60890 24300.00000 0 19391595.400 2950179.596 -16292733.501 10 0 60890 25200.00000 0 21090996.007 3731827.655 -13841906.653 10 0 60890 26100.00000 0 22555987.758 4248923.429 -11122011.591 10 0 60890 27000.00000 0 23731482.974 4528087.857 -8185991.217 10 0 60890 27900.00000 0 24570980.271 4606230.855 -5090953.206 10 0 60890 28800.00000 0 25038494.242 4528731.909 -1897053.909 10 0 60890 29700.00000 0 25110061.278 4347267.395 1333674.437 10 0 60890 30600.00000 0 24774759.071 4117377.811 4538529.935 10 0 60890 31500.00000 0 24035197.890 3895878.777 7655356.890 10 0 60890 32400.00000 0 22907463.945 3738225.842 10623747.603 10 0 60890 33300.00000 0 21420518.093 3695944.672 13386206.957 10 0 60890 34200.00000 0 19615075.768 3814235.005 15889257.622 10 0 60890 35100.00000 0 17542015.433 4129849.130 18084465.213 10 0 60890 36000.00000 0 15260382.083 4669333.844 19929364.556 10 0 60890 36900.00000 0 12835068.799 5447709.480 21388270.258 10 0 60890 37800.00000 0 10334272.191 6467641.309 22432957.139 10 0 60890 38700.00000 0 7826826.449 7719138.230 23043198.522 10 0 60890 39600.00000 0 5379525.474 9179791.901 23207152.934 10 0 60890 40500.00000 0 3054542.686 10815547.278 22921592.409 10 0 60890 41400.00000 0 907054.009 12581973.742 22191968.230 10 0 60890 42300.00000 0 -1016838.743 14425985.416 21032312.659 10 0 60890 43200.00000 0 -2681799.174 16287940.685 19464977.939 10 0 60890 44100.00000 0 -4064492.970 18104035.184 17520216.575 10 0 60890 45000.00000 0 -5154319.096 19808889.939 15235609.752 10 0 60890 45900.00000 0 -5953605.366 21338227.862 12655353.495 10 0 60890 46800.00000 0 -6477260.306 22631527.514 9829414.913 10 0 60890 47700.00000 0 -6751895.742 23634543.259 6812573.653 10 0 60890 48600.00000 0 -6814456.797 24301585.895 3663366.092 10 0 60890 49500.00000 0 -6710416.795 24597467.226 442952.148 10 0 60890 50400.00000 0 -6491613.230 24499025.592 -2786073.452 10 0 60890 51300.00000 0 -6213816.471 23996166.718 -5960902.102 10 0 60890 52200.00000 0 -5934134.630 23092374.419 -9019740.127 10 0 60890 53100.00000 0 -5708365.341 21804668.084 -11903020.579 10 0 60890 54000.00000 0 -5588407.795 20163007.327 -14554573.401 10 0 60890 54900.00000 0 -5619846.041 18209167.729 -16922730.038 10 0 60890 55800.00000 0 -5839807.376 15995134.182 -18961339.901 10 0 60890 56700.00000 0 -6275187.995 13581078.892 -20630677.995 10 0 60890 57600.00000 0 -6941322.361 11033008.762 -21898225.375 10 0 60890 58500.00000 0 -7841153.752 8420180.869 -22739306.774 10 0 60890 59400.00000 0 -8964942.077 5812394.429 -23137572.834 10 0 60890 60300.00000 0 -10290522.019 3277272.680 -23085317.594 10 0 60890 61200.00000 0 -11784101.191 877648.353 -22583625.274 10 0 60890 62100.00000 0 -13401564.972 -1330838.280 -21642343.824 10 0 60890 63000.00000 0 -15090233.238 -3301829.025 -20279886.195 10 0 60890 63900.00000 0 -16790995.016 -4999938.590 -18522863.646 10 0 60890 64800.00000 0 -18440731.155 -6401977.316 -16405558.730 10 0 60890 65700.00000 0 -19974922.951 -7497656.262 -13969248.705 10 0 60890 66600.00000 0 -21330336.818 -8289747.078 -11261393.113 10 0 60890 67500.00000 0 -22447672.013 -8793692.132 -8334701.891 10 0 60890 68400.00000 0 -23274060.043 -9036683.517 -5246102.741 10 0 60890 69300.00000 0 -23765310.775 -9056251.910 -2055628.474 10 0 60890 70200.00000 0 -23887811.113 -8898426.766 1174753.481 10 0 60890 71100.00000 0 -23619996.887 -8615547.199 4382346.163 10 0 60890 72000.00000 0 -22953336.745 -8263817.323 7504938.997 10 0 60890 72900.00000 0 -21892787.373 -7900710.173 10482010.807 10 0 60890 73800.00000 0 -20456701.652 -7582330.332 13255896.749 10 0 60890 74700.00000 0 -18676194.139 -7360846.594 15772896.922 10 0 60890 75600.00000 0 -16593990.773 -7282102.702 17984305.933 10 0 60890 76500.00000 0 -14262810.864 -7383506.288 19847344.458 10 0 60890 77400.00000 0 -11743348.549 -7692284.316 21325975.877 10 0 60890 78300.00000 0 -9101937.039 -8224177.823 22391593.452 10 0 60890 79200.00000 0 -6407991.675 -8982630.504 23023565.906 10 0 60890 80100.00000 0 -3731336.608 -9958505.208 23209631.814 10 0 60890 81000.00000 0 -1139524.438 -11130340.727 22946135.873 10 0 60890 81900.00000 0 1304741.756 -12465139.049 22238102.758 10 0 60890 82800.00000 0 3545978.643 -13919651.455 21099146.964 10 0 60890 83700.00000 0 5537988.280 -15442111.266 19551219.763 10 0 60890 84600.00000 0 7245534.565 -16974342.512 17624197.185 10 0 60890 85500.00000 0 8645561.584 -18454157.942 15355315.693 10 0 60891 0.00000 0 9727903.565 -19817947.321 12788465.298 10 0 60891 900.00000 0 10495457.483 -21003349.294 9973350.890 10 0 60891 1800.00000 0 10963809.682 -21951893.473 6964540.282 10 0 60891 2700.00000 0 11160333.909 -22611504.193 3820411.815 10 0 60891 3600.00000 0 11122796.959 -22938758.223 602024.647 10 0 60891 4500.00000 0 10897531.213 -22900801.061 -2628067.830 10 0 60891 5400.00000 0 10537251.163 -22476839.490 -5807037.953 10 0 60891 6300.00000 0 10098606.588 -21659145.792 -8873012.844 10 0 60891 7200.00000 0 9639576.524 -20453529.463 -11766287.686 10 0 60891 8100.00000 0 9216815.340 -18879254.886 -14430498.545 10 0 60891 9000.00000 0 8883064.399 -16968406.879 -16813730.790 10 0 60891 9900.00000 0 8684740.234 -14764729.644 -18869540.390 10 0 60891 10800.00000 0 8659802.612 -12321987.070 -20557867.330 10 0 60891 11700.00000 0 8835993.913 -9701912.668 -21845822.663 10 0 60891 12600.00000 0 9229525.339 -6971834.882 -22708333.419 10 0 60891 13500.00000 0 9844266.314 -4202077.136 -23128632.649 10 0 60891 14400.00000 0 10671471.882 -1463241.359 -23098585.121 10 0 60891 15300.00000 0 11690059.970 1176511.486 -22618842.502 10 0 60891 16200.00000 0 12867426.938 3654070.475 -21698825.389 10 0 60891 17100.00000 0 14160766.961 5913764.931 -20356532.925 10 0 60891 18000.00000 0 15518839.432 7909436.627 -18618184.192 10 0 60891 18900.00000 0 16884109.575 9606108.545 -16517698.822 10 0 60891 19800.00000 0 18195171.740 10981181.852 -14096027.481 10 0 60891 20700.00000 0 19389352.897 12025112.747 -11400345.774 10 0 60891 21600.00000 0 20405386.321 12741542.837 -8483127.864 10 0 60891 22500.00000 0 21186042.626 13146879.772 -5401118.381 10 0 60891 23400.00000 0 21680607.202 13269347.996 -2214223.279 10 0 60891 24300.00000 0 21847099.790 13147551.681 1015658.240 10 0 60891 25200.00000 0 21654142.992 12828612.368 4225837.586 10 0 60891 26100.00000 0 21082401.453 12365961.382 7354052.615 10 0 60891 27000.00000 0 20125531.688 11816881.378 10339671.774 10 0 60891 27900.00000 0 18790603.124 11239901.396 13124863.296 10 0 60891 28800.00000 0 17097973.116 10692155.583 15655707.182 10 0 60891 29700.00000 0 15080621.381 10226816.727 17883229.134 10 0 60891 30600.00000 0 12782971.626 9890712.186 19764337.399 10 0 60891 31500.00000 0 10259249.181 9722221.848 21262645.485 10 0 60891 32400.00000 0 7571442.317 9749545.671 22349166.072 10 0 60891 33300.00000 0 4786950.889 9989412.929 23002863.866 10 0 60891 34200.00000 0 1976018.581 10446286.877 23211057.666 10 0 60891 35100.00000 0 -790946.372 11112098.125 22969664.584 10 0 60891 36000.00000 0 -3446052.702 11966518.289 22283281.988 10 0 60891 36900.00000 0 -5926500.400 12977763.263 21165105.438 10 0 60891 37800.00000 0 -8176942.655 14103893.664 19636683.632 10 0 60891 38700.00000 0 -10151538.770 15294559.428 17727514.089 10 0 60891 39600.00000 0 -11815613.712 16493116.975 15474486.171 10 0 60891 40500.00000 0 -13146855.872 17639031.588 12921180.732 10 0 60891 41400.00000 0 -14136003.369 18670465.357 10117038.521 10 0 60891 42300.00000 0 -14786990.160 19526942.653 7116412.138 10 0 60891 43200.00000 0 -15116545.639 20151981.253 3977518.903 10 0 60891 44100.00000 0 -15153264.248 20495577.963 761314.241 10 0 60891 45000.00000 0 -14936183.969 20516443.074 -2469692.705 10 0 60891 45900.00000 0 -14512933.561 20183888.047 -5652658.044 10 0 60891 46800.00000 0 -13937526.874 19479285.090 -8725632.393 10 0 60891 47700.00000 0 -13267897.922 18397035.137 -11628775.588 10 0 60891 48600.00000 0 -12563281.664 16945001.507 -14305532.120 10 0 60891 49500.00000 0 -11881552.265 15144389.150 -16703743.297 10 0 60891 50400.00000 0 -11276632.546 13029073.030 -18776673.357 10 0 60891 51300.00000 0 -10796085.360 10644402.652 -20483928.649 10 0 60891 52200.00000 0 -10478989.800 8045532.021 -21792251.268 10 0 60891 53100.00000 0 -10354192.930 5295344.515 -22676171.259 10 0 60891 54000.00000 0 -10439011.566 2462059.256 -23118504.467 10 0 60891 54900.00000 0 -10738439.334 -383381.068 -23110686.414 10 0 60891 55800.00000 0 -11244892.608 -3170031.851 -22652935.896 10 0 60891 56700.00000 0 -11938505.924 -5829664.185 -21754245.452 10 0 60891 57600.00000 0 -12787964.092 -8299365.347 -20432199.333 10 0 60891 58500.00000 0 -13751835.397 -10523914.095 -18712622.968 10 0 60891 59400.00000 0 -14780349.094 -12457832.466 -16629071.261 10 0 60891 60300.00000 0 -15817541.572 -14067029.528 -14222166.172 10 0 60891 61200.00000 0 -16803680.024 -15329969.767 -11538797.031 10 0 60891 62100.00000 0 -17677860.813 -16238319.033 -8631199.720 10 0 60891 63000.00000 0 -18380672.440 -16797042.909 -5555933.198 10 0 60891 63900.00000 0 -18856810.432 -17023955.540 -2372773.908 10 0 60891 64800.00000 0 -19057533.698 -16948739.968 856449.867 10 0 60891 65700.00000 0 -18942858.796 -16611483.247 4069060.585 10 0 60891 66600.00000 0 -18483399.814 -16060789.747 7202747.224 10 0 60891 67500.00000 0 -17661776.684 -15351553.554 10196770.498 10 0 60891 68400.00000 0 -16473533.028 -14542484.766 12993134.291 10 0 60891 69300.00000 0 -14927525.287 -13693494.404 15537700.939 10 0 60891 70200.00000 0 -13045766.946 -12863048.039 17781229.474 10 0 60891 71100.00000 0 -10862734.292 -12105599.079 19680317.675 10 0 60891 72000.00000 0 -8424162.291 -11469208.893 21198230.801 10 0 60891 72900.00000 0 -5785380.036 -10993452.825 22305602.202 10 0 60891 73800.00000 0 -3009253.891 -10707698.990 22980993.424 10 0 60891 74700.00000 0 -163822.382 -10629831.255 23211303.960 10 0 60891 75600.00000 0 2680280.717 -10765469.315 22992023.440 10 0 60891 76500.00000 0 5452510.112 -11107718.415 22327321.690 10 0 60891 77400.00000 0 8085090.078 -11637459.417 21229974.795 10 0 60891 78300.00000 0 10515583.482 -12324167.752 19721128.045 10 0 60891 79200.00000 0 12689243.657 -13127227.945 17829899.351 10 0 60891 80100.00000 0 14561052.514 -13997689.812 15592829.567 10 0 60891 81000.00000 0 16097360.885 -14880393.874 13053188.922 10 0 60891 81900.00000 0 17277063.048 -15716377.851 10260151.509 10 0 60891 82800.00000 0 18092256.388 -16445463.813 7267852.543 10 0 60891 83700.00000 0 18548358.299 -17008917.456 4134345.608 10 0 60891 84600.00000 0 18663675.042 -17352067.267 920479.424 10 0 60891 85500.00000 0 18468440.235 -17426772.395 -2311284.280 10 0 60892 0.00000 0 18003363.200 -17193633.879 -5498088.342 10 0 60892 900.00000 0 17317748.008 -16623854.082 -8577910.679 10 0 60892 1800.00000 0 16467263.447 -15700664.266 -11490778.615 10 0 60892 2700.00000 0 15511457.770 -14420257.650 -14179948.009 10 0 60892 3600.00000 0 14511124.539 -12792186.795 -16593018.828 10 0 60892 4500.00000 0 13525631.596 -10839206.715 -18682966.016 10 0 60892 5400.00000 0 12610327.040 -8596568.735 -20409064.393 10 0 60892 6300.00000 0 11814132.767 -6110793.542 -21737688.844 10 0 60892 7200.00000 0 11177427.953 -3437974.025 -22642973.746 10 0 60892 8100.00000 0 10730312.400 -641678.419 -23107318.613 10 0 60892 9000.00000 0 10491323.273 2209458.868 -23121730.146 10 0 60892 9900.00000 0 10466659.333 5044358.230 -22685994.215 10 0 60892 10800.00000 0 10649945.009 7792218.347 -21808674.811 10 0 60892 11700.00000 0 11022543.706 10385228.726 -20506940.370 10 0 60892 12600.00000 0 11554406.316 12761158.396 -18806221.354 10 0 60892 13500.00000 0 12205418.246 14865713.315 -16739706.230 10 0 60892 14400.00000 0 12927187.151 16654564.870 -14347686.176 10 0 60892 15300.00000 0 13665194.953 18094965.812 -11676761.811 10 0 60892 16200.00000 0 14361222.416 19166887.484 -8778927.965 10 0 60892 17100.00000 0 14955943.104 19863632.405 -5710554.854 10 0 60892 18000.00000 0 15391576.588 20191898.418 -2531286.119 10 0 60892 18900.00000 0 15614488.428 20171293.703 697124.306 10 0 60892 19800.00000 0 15577626.989 19833325.000 3912013.401 10 0 60892 20700.00000 0 15242694.213 19219903.413 7051024.641 10 0 60892 21600.00000 0 14581959.001 18381432.173 10053314.212 10 0 60892 22500.00000 0 13579637.007 17374557.983 12860724.584 10 0 60892 23400.00000 0 12232779.046 16259681.236 15418903.046 10 0 60892 24300.00000 0 10551630.912 15098330.015 17678344.222 10 0 60892 25200.00000 0 8559449.412 13950507.946 19595337.319 10 0 60892 26100.00000 0 6291781.932 12872126.620 21132800.869 10 0 60892 27000.00000 0 3795238.861 11912629.319 22260990.025 10 0 60892 27900.00000 0 1125808.913 11112904.538 22958063.905 10 0 60892 28800.00000 0 -1653214.009 10503575.590 23210503.010 10 0 60892 29700.00000 0 -4473608.014 10103736.911 23013369.348 10 0 60892 30600.00000 0 -7264807.763 9920189.317 22370404.594 10 0 60892 31500.00000 0 -9956591.044 9947205.898 21293964.267 10 0 60892 32400.00000 0 -12481757.796 10166838.476 19804788.670 10 0 60892 33300.00000 0 -14778692.076 10549752.292 17931614.064 10 0 60892 34200.00000 0 -16793701.724 11056554.747 15710630.363 10 0 60892 35100.00000 0 -18483039.342 11639563.367 13184794.409 10 0 60892 36000.00000 0 -19814520.770 12244939.725 10403010.661 10 0 60892 36900.00000 0 -20768673.494 12815100.267 7419193.848 10 0 60892 37800.00000 0 -21339366.636 13291303.024 4291230.686 10 0 60892 38700.00000 0 -21533895.582 13616301.080 1079860.092 10 0 60892 39600.00000 0 -21372517.057 13736950.329 -2152506.622 10 0 60892 40500.00000 0 -20887453.638 13606660.331 -5343002.481 10 0 60892 41400.00000 0 -20121409.254 13187583.259 -8429534.307 10 0 60892 42300.00000 0 -19125658.142 12452446.586 -11352000.064 10 0 60892 43200.00000 0 -17957788.068 11385950.100 -14053469.352 10 0 60892 44100.00000 0 -16679193.555 9985666.167 -16481302.891 10 0 60892 45000.00000 0 -15352425.619 8262403.271 -18588188.116 10 0 60892 45900.00000 0 -14038510.692 6240015.755 -20333069.729 10 0 60892 46800.00000 0 -12794352.675 3954666.213 -21681956.418 10 0 60892 47700.00000 0 -11670328.383 1453570.346 -22608587.510 10 0 60892 48600.00000 0 -10708178.256 -1206723.913 -23094946.404 10 0 60892 49500.00000 0 -9939281.375 -3962451.560 -23131610.789 10 0 60892 50400.00000 0 -9383387.339 -6745051.798 -22717933.060 10 0 60892 51300.00000 0 -9047857.912 -9483794.465 -21862047.732 10 0 60892 52200.00000 0 -8927449.609 -12108502.123 -20580706.165 10 0 60892 53100.00000 0 -9004645.309 -14552254.336 -18898942.269 10 0 60892 54000.00000 0 -9250519.744 -16753961.600 -16849576.224 10 0 60892 54900.00000 0 -9626100.998 -18660701.986 -14472566.350 10 0 60892 55800.00000 0 -10084169.292 -20229723.619 -11814222.324 10 0 60892 56700.00000 0 -10571415.820 -21430030.338 -8926295.596 10 0 60892 57600.00000 0 -11030869.377 -22243485.491 -5864965.268 10 0 60892 58500.00000 0 -11404487.267 -22665389.183 -2689739.790 10 0 60892 59400.00000 0 -11635800.339 -22704506.494 537703.628 10 0 60892 60300.00000 0 -11672499.907 -22382547.294 3754718.853 10 0 60892 61200.00000 0 -11468857.074 -21733121.229 6898906.224 10 0 60892 62100.00000 0 -10987872.294 -20800213.350 9909319.750 10 0 60892 63000.00000 0 -10203064.690 -19636245.718 12727642.816 10 0 60892 63900.00000 0 -9099825.885 -18299807.255 15299309.922 10 0 60892 64800.00000 0 -7676281.590 -16853147.581 17574553.416 10 0 60892 65700.00000 0 -5943624.691 -15359539.891 19509355.887 10 0 60892 66600.00000 0 -3925905.600 -13880622.906 21066290.839 10 0 60892 67500.00000 0 -1659287.972 -12473832.313 22215236.640 10 0 60892 68400.00000 0 809200.176 -11190028.006 22933951.077 10 0 60892 69300.00000 0 3423369.298 -10071415.071 23208496.419 10 0 60892 70200.00000 0 6119955.979 -9149844.166 23033507.486 10 0 60892 71100.00000 0 8831010.611 -8445561.249 22412297.922 10 0 60892 72000.00000 0 11486487.941 -7966458.155 21356802.506 10 0 60892 72900.00000 0 14016934.879 -7707854.951 19887356.095 10 0 60892 73800.00000 0 16356165.730 -7652823.189 18032312.556 10 0 60892 74700.00000 0 18443815.050 -7773036.860 15827509.809 10 0 60892 75600.00000 0 20227662.886 -8030115.969 13315589.936 10 0 60892 76500.00000 0 21665636.056 -8377407.009 10545186.020 10 0 60892 77400.00000 0 22727401.926 -8762126.126 7569990.174 10 0 60892 78300.00000 0 23395487.718 -9127775.147 4447719.745 10 0 60892 79200.00000 0 23665877.768 -9416728.716 1239000.995 10 0 60892 80100.00000 0 23548062.884 -9572882.962 -1993808.311 10 0 60892 81000.00000 0 23064538.882 -9544252.964 -5187834.399 10 0 60892 81900.00000 0 22249774.709 -9285407.954 -8280916.914 10 0 60892 82800.00000 0 21148693.161 -8759639.606 -11212827.466 10 0 60892 83700.00000 0 19814728.072 -7940769.830 -13926452.508 10 0 60892 84600.00000 0 18307540.030 -6814519.602 -16368916.417 10 0 60892 85500.00000 0 16690487.355 -5379378.998 -18492621.724 99